Flag for Micronesia Weather past 2 weeks in Palikir, Ponape, Micronesia

Now
83 °F

Mostly cloudy.


Feels Like: 90 °F
Forecast: 81 / 84 °F
Wind: 8 mph from Northeast

Location: Pohnpei

Current Time: Jan 30, 2015 at 8:41:41 PM

Latest Report: Jan 30, 2015 at 7:53 PM


Visibility: 15 mi

Pressure: 29.80 "Hg

Humidity: 76%

Dew point: 75 °F

Location of PalikirLocation

Historic Weather in Palikir — Graph

°F

Palikir temperature yesterday

Maximum temperature yesterday: 84 °F (at 12:52 PM)
Minimum temperature yesterday: 81 °F (at 3:50 AM)
Average temperature yesterday: 82 °F

Past Weeks' High & Low Weather Summary

 TemperatureHumidityPressure
High88 °F (Jan 23, 1:55 PM)99% (Jan 22, 2:50 AM)29.97 "Hg (Jan 22, 2:50 AM)
Low72 °F (Jan 25, 4:51 AM)57% (Jan 24, 4:52 AM)29.71 "Hg (Jan 29, 3:52 PM)
Average82 °F78%29.86 "Hg
* Reported Jan 15 7:55 PM — Jan 30 7:53 PM, Palikir, Weather by CustomWeather, © 2014

Note: Actual official high and low records may vary slightly from our data, if they occured in-between our weather recording intervals... More about our weather records

Advertising

Palikir weather history for previous 24 hours

 ConditionsComfort  
Time TempWeatherWind HumidityBarometerVisibility
7:53 PM
Jan 30
83 °FMostly cloudy.8 mph76%29.80 "Hg15 mi
6:50 PM83 °FMostly cloudy.7 mph81%29.78 "Hg15 mi
5:52 PM83 °FMostly cloudy.3 mph81%29.76 "Hg15 mi
4:53 PM83 °FMostly cloudy.8 mph76%29.74 "Hg15 mi
3:51 PM83 °FMostly cloudy.8 mph81%29.72 "Hg15 mi
2:52 PM83 °FMostly cloudy.9 mph84%29.73 "Hg15 mi
1:53 PM85 °FMostly cloudy.8 mph75%29.75 "Hg15 mi
12:56 PM86 °FCloudy.10 mph67%29.77 "Hg15 mi
11:54 AM84 °FMostly cloudy.9 mph75%29.78 "Hg15 mi
10:53 AM84 °FMostly cloudy.8 mph75%29.81 "Hg15 mi
9:50 AM83 °FMostly cloudy.8 mph79%29.82 "Hg15 mi
8:52 AM82 °FMostly cloudy.12 mph76%29.82 "Hg15 mi
7:50 AM80 °FMostly cloudy.9 mph86%29.79 "Hg15 mi
6:50 AM81 °FCloudy.9 mph84%29.77 "Hg15 mi
5:50 AM81 °FMostly cloudy.5 mph79%29.75 "Hg15 mi
12:50 AM82 °FPartly cloudy.9 mph79%29.78 "Hg15 mi
11:52 PM
Jan 29
83 °FMostly cloudy.10 mph72%29.80 "Hg15 mi
10:51 PM83 °FMostly cloudy.14 mph76%29.81 "Hg15 mi
9:53 PM82 °FMostly cloudy.7 mph79%29.81 "Hg15 mi
8:53 PM82 °FPartly cloudy.8 mph83%29.80 "Hg15 mi
Weather by CustomWeather, © 2014

See weather overviewHow to use our weather pages